Погода в Кушадасы

Турция     37°51′37″N   27°15′23″E
темп.,
°C
ветер,
м/с
пор.,
м/с
влажн.,
%
обл.,
%
осадки,
мм/ч
давл.,
гПа
погр.,
м
27 февраля, сб
сб2700:00+12ссв22690 0.0 1021114
03:00+10ссв22690 0.0 1020116
06:00+10св22700 0.0 1019101
09:00+10св22680 0.0 1019127
12:00+14сз22560 0.0 1019307
15:00+15сз33590 0.0 1018338
18:00+14сз33640 0.0 1017252
21:00+13сз23740 0.0 1017200
28 февраля, вс
вс2800:00+12зсз22720 0.0 1018138
03:00+11с22750 0.0 1018138
06:00+10ссв22760 0.0 1018129
09:00+10ссв34690 0.0 1018178
12:00+14с57550 0.0 1019680
15:00+16с69570 0.0 10181047
18:00+14с710610 0.0 1019786
21:00+10ссв710690 0.0 1021486
1 марта, пн
пн100:00+7ссв68710 0.0 1022459
03:00+6ссв57740 0.0 1022373
06:00+5ссв57760 0.0 1022335
09:00+5ссв56740 0.0 1022395
12:00+10с56520 0.0 1022885
15:00+12с67430 0.0 10201184
18:00+12с58480 0.0 1020954
21:00+8ссв67600 0.0 1022419
2 марта, вт
вт200:00+7с67680 0.0 1023434
03:00+5ссв67740 0.0 1023464
06:00+5ссв79790 0.0 1023502
09:00+6ссв710740 0.0 1024673
12:00+10ссв810590 0.0 10241124
15:00+12с1012490 0.0 10231836
18:00+11с912550 0.0 10231380
21:00+8с79660 0.0 1024651
3 марта, ср
ср300:00+6ссв68720 0.0 1025505
03:00+5ссв68740 0.0 1025419
06:00+4ссв57780 0.0 1025432
09:00+5ссв57750 0.0 1025443
12:00+10с57510 0.0 1025793
15:00+14с78450 0.0 1024998
18:00+14с58510 0.0 1024763
21:00+11с56590 0.0 1024373